Location: ??????????
(41.2581°N, 22.8006°E)
Time: 06:50:29
(UTC+00:00)

Cosmos 1602 Rocket - Visible Passes

Search period start: 11 March 2026 00:00
Search period end: 21 March 2026 00:00
Orbit: 598 x 624 km, 82.5° (Epoch: 10 March)

Date Brightness Start Highest point End Pass type
(mag) Time Alt. Az. Time Alt. Az. Time Alt. Az.
11 Mar 6.5 03:18:30 10° NNE 03:21:46 20° ENE 03:25:00 10° ESE visible
11 Mar 4.3 17:24:54 10° SSW 17:29:12 58° W 17:33:35 10° N visible
12 Mar 5.5 03:32:41 10° NNE 03:36:43 33° ENE 03:40:42 10° SE visible
12 Mar 5.5 17:40:07 10° SW 17:44:05 33° WNW 17:48:05 10° NNW visible
13 Mar 4.3 03:47:11 10° N 03:51:35 58° E 03:55:55 10° SSE visible
13 Mar 6.5 17:55:49 10° WSW 17:59:01 20° WNW 18:02:16 10° NNW visible
14 Mar 3.5 04:01:56 10° N 04:06:22 79° W 04:10:45 10° S visible
14 Mar 7.1 18:12:31 10° W 18:14:03 12° WNW 18:15:37 10° NW visible
15 Mar 6.6 02:40:19 10° NNE 02:43:09 16° ENE 02:45:56 10° ESE visible
16 Mar 5.8 02:54:19 10° NNE 02:58:07 27° ENE 03:01:52 10° SE visible
16 Mar 5.2 17:01:21 10° SSW 17:05:29 40° WNW 17:09:40 10° N visible
17 Mar 4.7 03:08:44 10° N 03:13:01 47° ENE 03:17:14 10° SSE visible
17 Mar 6.4 17:16:51 10° SW 17:20:24 23° WNW 17:23:59 10° NNW visible
18 Mar 3.6 03:23:22 10° N 03:27:49 85° E 03:32:12 10° S visible
18 Mar 6.9 17:33:03 10° WSW 17:35:25 14° WNW 17:37:47 10° NW visible
19 Mar 6.8 02:02:16 10° NE 02:04:29 14° ENE 02:06:43 10° E visible
19 Mar 3.6 03:38:14 10° NNW 03:42:33 53° W 03:46:48 10° S visible
20 Mar 6.0 02:15:59 10° NNE 02:19:30 23° ENE 02:22:58 10° SE visible
20 Mar 4.3 03:53:21 10° NNW 03:57:11 30° W 04:01:00 10° SSW visible
